{"data":{"norad_id":56466,"epoch":"2026-05-25T03:48:26.658432Z","epoch_age_seconds":61502,"freshness":"FRESH","line1":"1 56466U 23064U   26145.15864188  .00000744  00000+0  70125-4 0  9994","line2":"2 56466  69.9993 311.5156 0003042 272.3785  87.7026 14.98339961166690","mean_motion":14.98339961,"eccentricity":0.0003042,"inclination_deg":69.9993,"raan_deg":311.5156,"arg_perigee_deg":272.3785,"mean_anomaly_deg":87.7026,"bstar":7.0125e-5,"rev_number":16669,"period_min":96.106360204058,"perigee_km":569.91084823722,"apogee_km":574.13932685129,"semimajor_km":6950.1620875443,"source":"CELESTRAK","updated_at":"2026-05-25T13:38:18.069949Z"}}